Regional Weather Roundup
Issued by NWS Charleston, WV

Home | Current Version | Previous Version | Graphics & Text | Print | Product List | Glossary On
Versions: 1 2 3 4 5 6 7 8 9 10 11 12 13 14 15 16 17 18 19 20 21 22 23 24 25 26 27 28 29 30 31 32 33 34 35 36 37 38 39 40 41 42 43 44 45 46 47
000
ASUS41 KRLX 301710
RWRRLX
West Virginia Regional Weather Roundup
National Weather Service Charleston WV
100 PM EDT THU JUL 30 2015

Note: "fair" indicates few or no clouds below 12,000 feet with no
significant weather and/or obstructions to visibility.

WVZ003-301800-
Northern Panhandle of West Virginia

CITY           SKY/WX    TMP DP  RH WIND       PRES   REMARKS
WHEELING       SUNNY     83  52  34 W8        30.01F
$$

WVZ009-301800-
Northwest West Virginia

CITY           SKY/WX    TMP DP  RH WIND       PRES   REMARKS
PARKERSBURG    MOSUNNY   84  55  36 W9G17     30.04F
$$

WVZ006-301800-
Western West Virginia

CITY           SKY/WX    TMP DP  RH WIND       PRES   REMARKS
HUNTINGTON     MOSUNNY   84  59  42 VRB6      30.04F
$$

WVZ015-301800-
West Central West Virginia

CITY           SKY/WX    TMP DP  RH WIND       PRES   REMARKS
CHARLESTON     MOSUNNY   84  63  49 CALM      30.03F
$$

WVZ022-031-301800-
North Central West Virginia

CITY           SKY/WX    TMP DP  RH WIND       PRES   REMARKS
CLARKSBURG     MOSUNNY   83  67  58 W10       30.00F
MORGANTOWN     MOSUNNY   84  60  44 NW3       30.01F
$$

WVZ025-035-042-045-301800-
Southern West Virginia

CITY           SKY/WX    TMP DP  RH WIND       PRES   REMARKS
BECKLEY        MOSUNNY   80  70  71 W8        30.10F
LOGAN          PTSUNNY   81  68  65 CALM      30.04S
BLUEFIELD      PTSUNNY   80  69  69 W9        30.13F
LEWISBURG      PTSUNNY   82  69  64 W8        30.07F
$$

WVZ047-301800-
Northern Mountains of West Virginia

CITY           SKY/WX    TMP DP  RH WIND       PRES   REMARKS
ELKINS         CLOUDY    79  70  74 NW5       30.05F
$$

WVZ052-301800-
Eastern Panhandle of West Virginia

CITY           SKY/WX    TMP DP  RH WIND       PRES   REMARKS
MARTINSBURG    LGT RAIN  74  71  91 SW6       29.93F FOG
PETERSBURG     CLOUDY   N/A N/A N/A CALM      29.97S
$$



USA.gov is the U.S. government's official web portal to all federal, state and local government web resources and services.